Wind_Speed
6 5 7 9 13 15 16 17 17 17 18 19 17 14 11 8 8 7 7 11 12 9 11 13 13 14 14 13 13 13 13 13 14 16 18 18 18 18 18 18 17 18 17 16 18 19 20 21 20 19 18 17 16 14 12 11 10 10 10 11 12 12 11 10 10 10 9 10 9 9 9 10 10 11 12 12 12 12 12 12 12 12 12 12 13 13 13
5 4 5 7 10 13 16 18 19 18 19 20 18 16 14 11 8 5 4 11 12 6 7 12 12 13 13 13 13 14 15 15 16 17 18 18 18 19 19 18 17 16 15 14 17 19 20 21 21 19 18 17 16 15 13 12 11 11 12 13 13 12 11 10 9 9 9 9 9 9 9 10 11 11 12 12 12 13 12 13 13 12 12 12 13 14 14
7 5 4 6 9 12 14 17 18 18 19 19 18 17 15 12 11 7 4 8 8 3 6 11 12 13 14 14 15 16 16 17 18 18 18 18 18 18 18 18 17 16 14 15 18 19 19 21 20 18 18 17 16 16 14 13 13 12 13 13 13 12 12 10 9 10 9 9 9 9 9 10 11 11 12 12 12 12 12 13 13 12 13 13 13 14 14
7 7 6 7 8 10 13 16 18 19 18 16 16 16 14 13 13 11 8 8 6 6 9 11 13 14 16 17 17 17 16 18 18 18 18 18 18 19 18 17 17 15 14 15 17 17 18 19 18 17 17 16 15 15 14 13 13 13 13 13 13 12 12 11 10 10 10 9 9 9 10 10 11 11 12 12 12 12 12 13 13 13 13 13 14 14 14
7 8 7 6 7 8 11 11 13 16 17 15 15 14 13 14 13 11 9 8 6 10 13 13 14 16 18 17 17 16 17 18 18 18 18 18 18 18 17 15 15 15 15 16 17 17 17 17 16 16 16 16 15 15 15 14 13 13 13 13 12 12 11 10 10 10 10 10 10 10 10 10 11 11 12 12 12 12 12 13 13 13 13 13 14 14 14
6 8 7 7 8 8 5 1 1 5 9 12 14 12 12 13 11 5 3 3 8 14 14 14 16 17 16 16 15 15 16 16 16 18 19 18 18 17 15 14 15 16 18 19 19 19 17 16 16 15 14 15 16 15 15 14 14 13 13 12 12 12 11 10 10 10 10 10 10 10 10 10 11 12 12 12 12 12 12 12 12 12 13 13 14 14 14
6 7 8 8 8 5 2 1 3 3 2 4 6 7 9 12 10 6 5 5 10 12 12 12 13 13 14 14 14 15 17 16 16 16 18 19 18 16 16 16 17 19 21 22 20 19 18 17 17 15 14 15 16 16 15 14 14 13 13 12 12 11 11 10 10 10 10 10 11 11 11 11 12 12 13 13 13 12 12 12 12 12 13 14 14 14 14
5 7 8 7 4 3 3 2 2 3 4 4 5 5 8 11 11 11 10 8 9 11 11 12 12 13 14 14 13 15 17 18 18 17 17 18 18 17 18 18 18 21 24 23 21 20 18 17 16 15 15 15 16 16 15 14 13 13 13 12 12 12 11 11 10 10 10 11 11 12 12 12 13 13 13 13 13 12 12 11 12 13 14 14 15 15 14
5 7 8 5 1 3 4 3 5 7 5 7 8 7 8 12 12 11 10 10 12 13 13 13 13 14 14 11 10 14 17 18 18 18 19 20 19 19 21 20 21 24 25 23 22 20 18 17 16 15 16 16 16 16 15 14 14 13 13 12 12 12 12 11 11 11 11 12 12 13 13 13 13 13 13 13 13 12 11 11 12 13 14 14 15 15 15
5 7 9 6 5 6 3 3 7 8 4 5 7 5 6 12 13 11 11 13 15 15 15 16 16 14 12 9 9 13 17 18 17 16 17 19 20 21 24 25 26 26 25 23 23 21 20 18 16 16 16 16 16 15 14 14 14 13 13 13 12 12 12 12 12 12 12 13 13 13 13 13 13 13 13 13 12 11 11 12 12 13 13 14 15 16 16
6 7 8 7 6 5 4 5 7 8 4 4 6 5 7 12 15 13 13 15 16 17 19 20 18 13 11 10 10 13 17 17 17 17 18 19 21 24 26 27 27 25 24 24 23 21 20 18 16 16 17 17 17 15 14 14 14 14 14 13 12 12 13 13 13 13 13 13 13 13 13 13 13 13 13 12 11 10 11 12 13 13 14 14 15 15 16
8 8 7 6 4 2 6 6 7 8 5 3 7 8 7 11 16 16 15 16 17 18 19 19 17 13 10 10 13 17 18 18 18 20 21 22 24 25 25 24 25 24 24 24 22 20 19 18 17 17 17 18 18 16 16 16 16 15 15 15 13 12 12 13 13 14 14 13 14 14 13 13 13 12 12 11 11 11 12 12 13 13 14 14 15 15 15
8 9 7 5 3 3 5 6 8 8 5 4 8 6 1 5 14 16 16 17 18 18 19 17 13 8 4 9 17 21 20 19 19 21 24 25 26 26 25 26 26 24 22 21 20 19 19 19 18 18 18 18 18 17 16 16 15 15 16 16 14 12 12 13 13 15 14 14 15 14 13 12 12 11 11 12 12 12 13 13 13 13 13 13 14 14 14
8 8 7 6 2 2 4 9 9 5 5 4 3 1 2 2 10 13 14 15 16 17 17 13 8 6 10 17 22 23 20 19 18 20 22 23 22 24 25 26 26 23 21 21 20 19 19 18 17 17 18 18 17 17 17 16 15 15 16 15 14 12 13 13 14 15 15 14 15 13 12 12 13 12 13 12 13 13 14 14 14 13 13 13 13 14 14
7 7 8 7 3 3 8 12 8 4 4 1 3 2 1 3 7 10 11 12 14 16 15 10 8 12 17 20 23 23 20 18 18 19 21 22 23 24 25 24 23 22 22 21 21 20 18 17 17 17 19 19 17 17 17 16 16 16 15 14 14 14 14 14 14 15 15 15 14 13 12 13 13 13 13 13 13 13 12 13 13 13 13 13 13 13 13
7 8 7 3 1 5 10 8 4 2 1 3 5 4 0 3 7 8 9 10 13 15 13 11 12 16 18 20 21 21 20 19 18 18 20 23 25 25 24 23 23 23 22 22 20 19 18 17 17 18 19 19 18 18 17 16 16 16 15 14 15 15 15 15 15 14 14 14 14 13 13 13 13 13 13 12 12 12 11 12 12 12 12 11 11 12 11
4 2 1 1 2 3 5 3 4 3 2 2 4 4 1 3 6 6 7 11 14 15 13 13 14 15 17 19 19 20 20 19 18 19 21 24 25 24 24 24 23 22 23 23 21 19 18 18 17 17 19 20 20 18 17 16 16 16 16 16 16 16 16 15 15 14 14 13 13 12 12 12 12 12 12 12 12 11 11 12 11 11 11 10 10 11 11
3 2 3 2 1 3 3 3 3 3 2 0 2 3 1 3 5 6 7 10 13 14 14 14 13 14 17 19 19 19 19 19 19 21 23 24 25 26 25 24 24 24 24 23 22 21 19 18 17 17 18 21 21 19 17 16 16 16 16 16 16 16 16 16 15 14 14 14 13 13 12 12 11 11 11 10 11 11 11 12 11 10 10 10 10 10 10
5 3 4 4 2 3 3 3 2 2 0 1 2 3 2 3 5 6 8 11 13 14 14 15 14 15 19 21 20 18 18 18 19 21 23 23 24 26 25 25 25 25 24 23 22 22 20 18 18 19 19 20 20 19 17 17 17 17 17 17 16 16 15 15 14 13 13 13 13 12 12 11 11 11 11 11 11 10 10 10 10 10 10 10 10 10 10
4 2 4 3 2 3 3 2 1 2 2 1 2 2 2 4 6 8 10 12 14 13 14 16 17 17 19 21 20 18 17 17 17 19 22 24 24 24 25 26 25 24 24 23 23 22 21 19 19 20 20 19 20 19 18 18 18 18 17 17 16 15 15 14 14 13 13 12 12 11 11 11 11 11 12 12 13 12 11 9 8 9 9 10 10 11 10
3 1 4 5 4 4 5 5 2 1 1 2 3 4 4 7 8 9 11 13 13 13 15 16 17 18 18 20 20 19 17 16 16 19 23 25 25 25 25 25 25 24 24 24 24 22 21 21 20 21 20 20 19 19 18 18 18 18 17 16 15 15 14 14 13 13 13 12 12 12 13 13 14 14 13 12 13 14 14 13 11 10 9 9 9 11 11
3 1 3 5 2 2 4 6 5 3 2 3 5 6 7 9 9 11 12 12 12 13 14 15 17 18 17 19 20 19 17 17 21 24 26 26 26 26 26 25 24 25 25 25 25 23 22 22 22 21 21 20 19 18 18 18 18 18 17 16 15 14 14 13 13 12 12 12 12 13 14 15 16 17 16 15 15 15 15 15 14 13 13 11 9 9 10
1 3 3 2 1 3 4 5 5 5 3 4 6 7 8 9 10 12 13 12 11 11 12 14 17 18 17 19 21 19 17 21 26 28 27 26 26 26 26 25 25 26 25 25 25 24 22 22 22 21 21 19 18 18 18 18 18 18 16 15 14 13 13 12 12 11 11 12 12 13 14 15 15 16 17 17 17 16 16 16 15 14 14 13 10 9 9
3 3 4 3 3 4 5 6 5 5 4 5 6 7 8 9 11 12 13 13 12 11 10 12 17 20 20 19 19 18 20 25 29 28 27 28 28 27 27 27 27 27 27 26 25 24 23 23 22 21 20 19 17 17 17 17 17 16 14 13 13 13 13 12 12 11 12 12 12 13 14 14 14 14 15 15 15 15 15 15 14 14 13 13 12 11 10
2 2 4 5 5 6 6 5 5 4 2 3 5 6 8 9 10 12 13 12 12 12 11 10 14 20 23 20 16 16 18 22 26 28 27 27 26 26 26 27 27 27 26 26 25 24 23 23 22 21 20 18 17 16 16 17 16 14 13 12 12 13 13 12 12 12 12 13 13 13 12 11 11 11 12 13 13 13 14 14 14 14 14 13 13 13 12
1 4 5 6 7 6 4 4 5 4 3 4 6 6 8 10 10 11 12 12 12 13 13 12 13 17 22 22 19 18 20 22 24 27 27 25 25 25 25 27 28 27 26 26 24 24 24 24 23 21 19 18 17 16 16 16 15 13 13 12 12 12 13 13 13 13 13 12 12 11 10 10 10 9 9 10 10 11 11 12 12 13 13 13 13 13 13
4 4 4 5 6 5 3 3 4 5 4 5 7 8 10 11 11 12 13 13 13 14 15 17 18 18 19 21 22 21 20 20 20 22 24 24 24 23 24 26 27 27 26 25 24 24 24 24 22 20 19 18 17 15 15 15 14 13 12 11 12 13 14 13 12 12 12 12 11 11 10 10 10 9 9 8 8 8 8 8 9 10 11 11 12 12 12
4 2 2 1 4 5 5 5 5 6 5 6 7 9 10 11 12 13 13 12 13 14 14 17 22 21 18 19 22 22 20 17 15 16 19 21 22 25 27 27 27 27 26 24 23 24 24 23 21 20 19 18 17 16 15 15 14 13 12 12 13 14 14 13 12 12 12 12 11 10 10 10 9 9 8 8 8 8 8 7 7 7 8 8 8 9 10
3 3 3 4 6 7 7 6 6 6 6 7 8 9 10 11 11 11 12 12 12 12 12 14 20 23 21 20 22 22 19 17 15 16 19 21 25 30 31 29 27 26 25 24 24 24 23 22 21 20 19 18 17 16 15 15 14 13 12 12 14 14 14 12 13 13 11 10 10 10 10 9 9 9 8 8 7 7 7 6 5 5 5 5 5 6 6
4 4 6 7 8 8 7 6 6 6 6 8 9 8 10 12 11 10 11 12 10 11 13 15 18 19 20 22 23 22 21 21 21 22 23 24 26 27 27 26 25 23 22 24 24 23 22 21 20 20 19 18 17 16 15 15 14 13 12 12 13 14 14 13 13 12 11 11 12 11 10 8 8 8 7 7 6 6 7 5 4 3 4 3 3 3 3
7 7 8 8 6 6 5 5 6 7 7 8 10 10 10 11 12 11 12 11 10 11 15 17 18 17 18 23 26 26 24 25 25 24 24 25 27 26 24 23 23 22 21 24 25 23 22 21 20 20 19 18 17 16 15 15 14 13 13 13 13 15 15 14 12 12 12 12 12 10 8 7 8 7 7 6 6 5 5 4 3 2 2 2 2 3 3
9 8 7 6 5 4 5 5 6 7 8 8 10 10 9 10 12 12 11 10 11 14 15 16 18 18 18 21 25 26 26 25 25 25 24 25 27 26 22 19 21 22 22 23 23 22 22 21 20 20 20 19 18 16 15 15 14 13 13 13 14 16 16 14 11 12 12 12 11 9 8 7 8 7 6 5 4 3 3 2 2 1 1 1 1 2 3
7 6 5 5 4 4 6 6 6 7 8 8 8 8 7 8 9 11 11 11 13 16 17 17 18 20 21 22 22 23 24 23 21 21 21 21 22 22 20 18 20 22 21 21 22 21 21 21 20 20 20 19 17 16 15 15 14 14 14 14 15 16 15 12 10 11 12 11 9 9 8 7 7 6 5 4 3 3 2 1 1 1 1 2 1 1 1
2 2 3 3 1 3 6 7 7 7 7 6 6 6 7 8 8 10 13 14 13 14 15 17 18 21 22 21 19 21 21 18 14 14 18 20 20 19 18 18 20 20 20 21 21 20 20 20 20 21 22 20 17 16 16 15 15 15 14 15 15 16 15 12 11 11 11 9 8 8 7 6 6 5 4 4 3 3 2 2 3 3 3 4 3 1 1
3 3 5 3 1 3 7 8 8 8 8 7 6 6 7 9 9 10 13 14 12 12 15 18 20 22 22 21 21 23 23 21 19 20 23 24 22 19 17 17 19 20 20 21 20 20 20 20 20 21 22 20 17 17 17 16 15 15 14 15 15 15 14 13 11 10 9 9 8 8 7 7 6 4 4 4 4 4 4 4 4 4 4 5 5 3 3
3 5 5 3 3 6 8 7 8 8 8 8 8 7 8 10 12 12 13 13 13 16 19 21 21 22 22 21 22 23 23 23 24 25 26 24 21 18 17 17 19 21 20 20 20 19 19 20 22 22 21 19 18 18 18 17 15 15 15 14 14 13 13 12 11 9 8 8 8 8 7 6 5 5 6 6 6 5 5 5 5 5 5 6 6 5 5
4 5 4 4 6 7 7 6 8 8 8 8 9 10 11 13 14 14 15 14 16 20 23 21 20 20 20 21 21 21 22 24 25 25 26 23 20 18 17 18 20 21 19 18 19 18 18 21 25 25 21 19 19 20 19 17 15 15 15 13 12 12 11 10 10 9 9 8 8 7 7 7 7 7 8 8 7 6 6 6 5 6 6 6 6 6 6
5 6 6 6 7 8 7 7 7 9 9 10 10 11 13 14 14 15 16 16 18 20 21 19 18 19 20 20 18 18 21 24 26 27 26 22 19 18 18 19 21 20 18 18 19 17 18 23 27 25 21 19 19 21 21 19 15 14 14 12 11 10 10 10 9 9 9 8 8 8 8 8 8 8 8 8 7 7 6 6 6 6 7 7 6 6 7
6 7 7 7 7 8 8 7 7 8 10 10 11 11 13 14 14 14 14 16 18 19 19 18 18 19 19 18 16 16 19 23 27 26 23 20 19 19 18 19 19 18 17 18 19 17 19 25 26 22 20 20 19 20 22 21 16 13 12 11 10 10 10 9 9 9 9 8 8 8 8 8 8 8 8 8 7 7 7 7 7 7 8 8 7 7 6
6 6 7 7 7 7 8 7 7 8 9 10 11 12 13 15 15 14 14 15 17 17 19 20 20 18 18 18 17 17 18 21 24 23 20 18 19 19 18 17 17 16 18 20 19 18 22 28 25 19 19 21 19 19 22 23 18 13 10 10 10 10 10 9 9 9 9 8 8 8 9 9 8 8 8 8 8 8 8 8 8 8 8 8 8 7 7
6 7 7 7 6 7 7 8 8 8 9 9 10 11 14 16 16 15 15 17 17 17 18 20 20 19 18 18 18 18 19 20 21 21 19 19 20 19 17 16 15 16 20 21 19 21 27 28 22 17 19 21 18 17 20 22 19 14 11 10 10 10 9 9 9 9 9 9 9 9 9 9 9 9 9 9 9 9 9 9 9 9 9 9 9 8 8
7 8 8 7 7 6 7 7 8 9 9 9 10 11 13 15 15 15 16 17 18 18 17 17 18 19 19 18 18 19 19 20 21 20 20 20 19 18 16 16 16 18 21 22 21 24 28 25 19 17 19 19 17 17 18 19 17 14 12 11 11 11 10 10 10 9 9 10 10 10 10 10 10 10 10 10 10 10 10 10 10 10 10 10 10 10 10
8 8 8 7 7 7 7 7 8 9 9 10 10 11 12 13 14 15 16 17 18 18 16 15 16 18 18 17 18 18 18 18 19 19 19 18 18 17 16 16 17 21 25 24 22 23 24 22 18 17 17 16 16 18 18 16 14 13 12 11 11 10 10 10 10 10 10 10 10 10 11 11 11 11 11 11 11 11 11 11 11 11 11 11 12 11 11
8 8 7 8 8 7 7 8 9 9 9 9 10 10 11 12 13 14 16 17 17 17 18 18 17 16 16 17 18 17 16 17 18 18 18 17 16 15 15 17 20 24 27 25 22 21 21 20 18 18 18 18 17 18 17 15 13 12 12 11 10 10 11 10 11 11 11 11 11 11 11 11 12 12 13 13 13 13 13 12 12 12 12 13 13 13 13
8 7 8 9 9 8 7 9 10 10 10 11 10 9 10 10 12 14 16 15 14 16 19 20 18 17 17 18 17 16 17 19 20 19 18 18 16 14 15 19 23 27 28 25 20 19 19 18 18 20 21 20 18 17 16 14 12 12 11 11 11 11 11 11 12 13 13 12 12 12 12 12 12 12 13 13 13 13 14 14 14 14 14 14 14 14 14
8 8 9 10 9 7 6 8 9 10 11 11 10 8 8 9 11 14 15 14 13 15 18 20 19 19 19 18 16 15 15 16 16 17 18 19 16 14 15 19 24 27 27 23 18 17 18 18 19 21 21 20 19 17 15 13 12 12 12 12 12 11 11 12 12 13 13 13 13 13 12 12 12 12 12 12 13 13 14 14 14 15 15 15 15 15 15
8 9 9 9 8 7 7 8 9 10 10 9 8 7 9 10 10 12 14 14 14 14 15 17 18 18 19 20 21 20 18 15 13 13 15 17 16 15 17 20 23 25 24 20 17 17 17 18 19 21 20 19 18 16 14 12 13 13 12 12 12 12 12 12 12 12 13 13 13 13 13 13 13 14 14 13 14 14 14 14 15 16 16 16 16 16 16
8 9 9 10 9 9 10 10 9 9 9 8 8 9 11 11 11 10 11 12 13 13 13 13 14 15 18 24 28 28 25 21 16 13 14 16 16 16 18 21 22 23 22 19 17 16 17 18 19 20 19 18 17 15 13 13 13 14 13 13 13 13 12 12 12 12 12 12 12 13 13 14 14 15 15 15 15 15 15 15 16 16 16 17 17 17 18
8 9 9 10 10 10 10 9 8 8 8 8 8 9 11 12 11 10 10 11 12 12 13 12 12 15 21 26 28 29 30 28 21 15 14 16 15 15 18 21 22 22 21 18 16 17 19 19 19 18 18 17 16 14 13 13 13 13 13 13 13 13 13 12 12 11 11 11 11 12 12 13 13 14 14 15 15 15 16 16 17 17 17 18 19 19 20
9 9 9 9 10 10 9 9 9 9 10 9 9 10 11 11 10 9 10 11 11 11 11 11 12 15 21 25 25 26 29 27 21 16 16 17 16 15 17 20 22 22 20 17 15 16 18 19 18 17 16 16 15 14 13 12 12 12 13 14 13 13 13 13 14 14 14 14 13 13 13 13 13 13 14 15 15 16 17 17 18 18 19 20 21 21 21
9 9 9 9 10 10 10 9 9 9 9 10 11 11 11 11 9 9 11 13 12 11 10 11 11 14 19 23 25 26 26 21 16 15 18 18 16 16 17 20 22 23 21 18 15 16 17 17 17 16 15 15 14 13 13 13 13 13 13 14 14 14 14 15 15 16 16 16 16 16 15 15 15 15 16 16 17 18 18 19 19 19 19 19 20 19 19
8 8 9 9 10 11 10 9 9 8 8 9 11 11 11 10 9 9 11 13 13 12 12 12 11 12 16 19 21 23 22 18 14 14 17 17 16 16 17 19 21 22 21 18 17 17 16 16 16 16 15 14 13 12 13 14 14 14 13 14 14 15 15 16 17 17 16 17 17 17 17 17 17 18 18 18 18 18 19 19 19 19 19 19 18 19 20
Wind_Direction
194 183 161 173 192 197 198 202 206 206 206 208 212 216 221 220 222 219 185 188 208 205 176 168 165 164 162 159 156 149 146 151 150 146 145 143 143 145 144 143 142 138 134 134 135 129 121 120 124 126 129 131 129 126 122 115 110 108 109 110 108 105 101 92 83 78 76 74 73 72 72 72 71 70 70 69 69 66 63 60 56 52 50 49 47 44 40
187 175 162 180 199 202 204 206 208 208 208 208 209 212 214 212 220 236 191 191 207 213 170 160 153 155 158 153 151 148 145 150 152 148 147 145 145 147 145 143 140 133 129 130 131 129 127 129 130 130 133 132 128 123 118 113 111 111 112 110 104 102 100 94 87 83 80 79 77 76 76 75 74 75 75 74 72 68 63 60 56 53 50 49 47 43 40
178 179 181 188 203 211 211 212 212 211 211 210 208 209 209 209 215 225 227 204 195 136 121 143 144 150 154 151 153 153 151 153 153 150 148 146 147 147 142 139 136 131 130 132 133 133 134 135 133 132 134 130 123 119 115 113 115 114 111 105 99 97 98 96 94 89 85 83 81 79 79 78 79 80 78 76 72 67 63 60 56 53 50 49 47 45 43
179 181 196 193 200 215 218 218 214 211 211 209 208 211 208 207 211 209 217 225 201 145 133 141 149 159 160 158 159 159 158 158 155 151 151 149 148 145 140 137 135 131 131 133 139 142 139 137 135 133 133 126 118 116 115 114 116 112 106 101 97 97 97 97 97 92 89 88 85 84 84 82 83 82 78 75 70 66 64 60 56 54 51 49 48 45 44
174 174 194 194 194 210 218 221 216 212 213 210 208 209 203 204 211 208 214 229 189 147 147 152 164 173 170 167 167 165 162 160 156 154 153 150 145 139 138 139 135 133 137 143 148 148 141 136 133 130 128 121 117 117 117 116 114 108 103 101 99 98 98 97 95 92 92 93 90 89 87 84 84 81 77 74 70 67 65 61 57 55 52 49 48 46 44
177 168 178 191 202 209 208 227 316 221 215 209 206 202 195 200 209 209 220 210 150 149 160 167 174 180 176 169 168 166 163 161 158 156 154 149 143 141 144 145 143 145 148 148 147 144 138 132 126 124 122 118 118 119 118 116 113 107 104 103 101 100 100 99 96 94 95 96 94 92 88 86 85 81 77 75 71 68 66 62 58 56 53 49 47 46 45
184 165 176 196 206 207 173 50 27 53 106 186 196 195 195 197 197 195 205 185 156 157 165 166 169 172 165 160 162 165 165 163 159 157 155 149 146 151 152 149 151 154 151 148 146 141 133 128 127 129 129 124 121 122 120 118 113 108 106 105 103 102 101 99 98 98 98 99 97 94 91 89 86 82 79 76 73 70 68 64 62 60 55 51 49 47 45
179 174 194 203 182 130 128 135 123 112 117 148 168 194 207 200 197 202 205 185 157 154 154 154 159 158 153 153 160 164 168 168 163 159 157 154 156 159 154 149 152 152 149 148 146 138 132 132 136 137 135 129 124 122 121 117 113 110 107 105 103 102 100 98 97 99 101 101 99 97 95 91 87 83 80 78 75 74 73 70 68 66 60 55 52 50 46
196 195 200 199 164 169 169 159 170 173 168 172 183 209 213 197 195 200 190 165 152 151 147 147 148 145 145 153 164 168 171 171 166 161 159 158 157 152 146 145 146 146 145 144 141 138 138 140 142 139 132 128 124 122 121 118 114 111 107 104 102 101 99 99 99 102 105 103 101 99 95 91 86 83 81 80 79 78 78 75 71 69 66 61 57 53 50
210 212 202 202 218 208 178 117 154 167 170 179 190 224 216 186 185 191 179 162 156 151 146 147 145 143 149 161 172 175 176 173 166 157 151 147 141 138 141 144 144 142 140 135 134 139 143 142 142 137 129 125 123 119 117 114 112 109 105 102 100 100 101 103 105 105 105 103 101 98 95 91 87 84 83 83 82 80 79 77 73 70 69 67 62 58 54
204 216 210 209 213 186 121 96 136 153 152 155 176 225 221 182 176 184 178 165 158 154 152 153 153 155 167 178 179 177 175 170 162 152 145 141 138 140 144 143 139 137 131 123 126 136 140 139 138 132 125 122 117 111 109 109 105 102 100 98 97 101 106 109 108 107 105 102 100 97 95 92 88 87 86 84 83 82 80 78 76 72 71 69 66 62 58
207 215 216 216 213 127 92 96 128 142 136 148 184 207 205 168 168 177 177 169 163 158 158 162 167 174 186 186 174 168 164 160 156 150 146 145 145 143 140 133 128 126 123 122 127 132 133 133 132 127 123 119 113 109 109 108 105 104 105 103 101 102 106 107 106 106 104 101 99 98 96 95 92 90 87 84 81 81 79 79 78 75 72 71 68 65 62
208 214 220 211 182 91 96 117 130 138 146 184 197 196 156 158 171 176 176 172 165 161 165 173 180 187 173 143 149 156 156 151 149 146 142 142 142 138 132 128 126 125 125 128 130 130 130 131 131 128 124 118 114 115 114 110 110 112 110 106 105 106 108 107 106 105 104 101 100 98 97 97 94 90 86 83 82 82 81 80 79 77 75 72 69 66 62
207 211 222 215 179 89 118 124 122 151 185 188 186 152 6 222 184 173 173 170 163 166 175 181 175 138 117 126 141 154 155 145 140 140 135 130 126 123 123 125 127 127 129 130 128 128 131 132 131 130 126 121 121 122 119 115 115 114 109 109 114 115 112 108 106 106 105 103 102 100 97 96 93 89 87 85 83 83 83 81 79 77 74 71 70 67 62
208 207 216 223 209 153 148 133 127 198 219 62 11 355 322 216 180 167 169 166 164 172 176 168 140 122 125 136 148 155 151 136 130 133 130 124 122 123 124 128 130 131 130 130 129 131 133 133 132 131 127 125 125 122 116 114 115 113 113 118 119 116 111 107 105 107 107 105 104 102 98 95 92 89 88 86 84 83 83 82 79 77 74 70 68 66 61
209 210 208 221 92 141 158 145 126 199 157 24 345 337 32 178 174 168 168 165 172 179 170 148 135 130 134 146 151 148 141 134 131 133 131 129 130 130 129 132 135 134 131 129 130 132 132 132 133 132 130 127 123 118 115 116 117 118 120 122 118 113 111 109 108 109 109 107 106 103 98 94 91 88 86 84 82 80 78 78 76 73 71 69 66 64 61
202 218 170 36 42 129 151 101 47 40 52 11 323 327 3 169 174 176 175 172 175 175 155 136 134 136 141 149 148 140 135 134 134 135 134 134 134 134 133 135 137 136 133 132 131 131 131 132 133 133 132 126 120 117 118 121 122 122 122 121 118 116 114 113 112 112 110 107 103 100 97 93 89 86 85 83 82 79 74 72 71 70 68 66 63 61 58
142 96 92 101 137 160 153 105 59 32 15 337 280 294 271 176 176 183 180 170 167 159 142 134 136 138 143 148 146 138 134 134 134 135 136 138 139 139 138 139 139 137 134 132 131 130 130 132 132 132 130 125 121 121 124 126 125 125 124 122 120 118 117 117 116 114 111 106 101 98 94 89 85 83 82 80 79 77 74 70 68 66 65 63 62 60 56
175 179 128 118 148 176 176 160 120 89 61 234 258 268 233 178 173 168 152 146 150 147 139 138 139 140 146 150 147 139 135 135 136 137 139 142 143 143 142 141 140 138 135 133 132 131 131 132 131 129 127 124 123 125 128 129 129 128 126 123 121 121 121 121 119 115 111 108 105 99 94 89 85 81 77 75 72 69 66 66 67 67 64 59 56 54 52
188 159 101 115 180 204 198 202 167 124 138 173 216 241 207 172 163 156 144 143 150 152 145 141 141 144 150 153 149 141 138 138 137 138 140 141 142 142 142 141 140 138 136 135 134 133 133 133 131 130 128 126 127 128 130 132 132 129 127 126 126 126 125 123 120 117 113 111 106 98 91 85 80 76 73 71 68 60 52 51 56 60 61 60 55 49 48
207 163 138 162 189 187 184 196 201 96 109 164 169 174 173 161 157 159 157 153 155 155 149 143 144 148 151 150 145 140 139 141 140 140 142 143 142 141 141 141 140 138 137 136 135 134 135 134 133 132 131 130 131 131 132 134 132 129 128 129 128 126 125 124 123 120 117 112 105 100 94 86 79 75 74 75 74 70 64 63 64 60 59 62 57 50 48
217 137 146 166 168 126 161 177 172 147 160 173 160 161 165 161 159 162 160 150 143 146 148 148 148 149 149 148 145 142 142 145 146 145 145 144 143 143 142 141 139 138 138 138 137 136 137 137 137 136 134 135 135 134 134 134 132 130 130 130 130 128 127 126 125 124 120 115 110 107 104 99 91 85 83 82 82 80 75 73 73 71 68 69 68 63 62
313 28 65 125 55 55 107 137 135 133 159 172 162 162 165 160 159 160 153 142 132 135 147 155 153 148 148 148 145 142 143 146 147 148 147 145 143 143 143 142 141 140 140 140 139 139 140 140 139 138 138 140 139 138 138 137 135 134 134 133 132 131 128 126 126 125 122 119 118 116 113 111 107 99 92 85 81 80 79 77 76 75 73 73 75 81 84
350 26 45 51 45 69 105 120 115 120 157 174 163 160 161 159 158 155 148 142 139 136 141 154 154 148 146 146 144 142 145 147 148 148 147 146 145 145 146 146 144 143 143 143 142 142 142 142 141 141 143 144 143 142 141 141 140 140 138 136 134 131 129 128 127 127 124 122 123 123 121 119 116 112 106 97 87 81 79 78 77 77 76 75 76 80 88
353 56 58 61 76 91 109 122 117 114 148 163 150 152 156 153 153 151 145 142 143 138 134 141 150 148 145 138 128 125 132 140 144 143 142 141 143 144 146 146 145 145 146 146 144 144 144 143 143 144 146 147 147 146 144 144 144 141 137 134 132 132 133 134 131 128 128 127 127 127 127 126 124 120 116 111 105 97 91 85 81 78 77 76 77 77 78
73 97 93 98 98 94 100 127 131 127 132 140 140 145 144 138 136 139 138 135 135 136 131 126 131 140 140 134 126 123 125 130 136 138 138 138 141 145 146 146 146 147 147 146 145 146 145 145 146 147 148 150 150 148 146 145 143 139 135 132 130 134 139 139 136 133 133 132 130 128 124 122 122 120 117 118 121 120 115 107 98 89 81 77 77 78 77
119 115 114 114 107 92 67 81 116 127 130 136 142 144 141 134 126 123 123 120 118 121 120 115 112 114 120 125 127 126 126 126 131 135 137 138 140 141 142 142 143 143 144 145 146 146 146 146 148 149 150 151 152 149 147 145 142 137 134 131 130 136 142 142 139 136 134 133 132 129 124 120 118 117 117 119 120 120 117 116 112 103 93 85 79 77 76
108 74 9 39 95 99 88 89 117 131 129 133 142 144 141 135 126 120 118 113 107 104 104 109 113 115 120 127 128 125 124 125 128 129 129 131 136 139 139 141 142 142 143 144 145 146 148 150 151 150 150 152 153 151 147 145 142 138 135 132 133 139 144 144 140 136 135 136 134 129 126 124 121 118 118 117 116 115 112 111 110 108 107 107 98 86 76
70 55 47 65 87 102 108 114 127 129 127 133 142 143 140 134 127 121 118 115 110 107 106 113 120 124 130 134 133 131 133 136 137 134 130 132 138 142 143 144 144 145 147 149 149 150 153 153 152 152 151 153 155 153 149 147 145 141 137 136 138 143 145 142 139 138 137 135 131 128 128 127 125 124 123 120 118 117 112 108 110 107 107 117 125 112 93
73 84 94 98 105 117 123 126 130 133 138 145 145 143 139 132 124 119 120 119 116 117 123 128 129 129 135 141 141 141 142 141 142 142 140 138 140 143 146 147 146 146 151 155 156 157 157 157 155 154 154 155 156 154 152 151 147 143 140 137 139 143 144 140 139 140 137 133 134 136 137 136 133 129 126 123 120 115 111 110 114 110 100 98 101 95 82
96 94 98 105 117 129 128 129 137 141 142 146 148 148 142 132 125 126 128 125 124 130 136 139 137 136 142 147 147 145 144 141 141 144 145 145 146 148 151 153 154 154 156 159 161 161 161 161 160 157 156 158 158 155 155 153 148 145 142 137 136 139 141 140 140 141 138 140 146 150 149 143 137 131 131 132 130 127 127 126 122 111 97 91 80 58 40
110 104 108 114 121 134 135 137 146 147 145 149 154 153 147 136 133 135 134 130 134 140 144 144 142 140 142 144 144 144 143 140 140 143 145 147 152 154 153 153 156 158 158 160 162 164 165 164 162 159 159 160 159 157 157 155 150 147 144 140 140 143 145 144 144 144 145 150 156 158 155 150 145 145 149 149 144 141 141 134 121 103 39 3 35 53 36
120 119 136 136 133 148 150 148 151 151 150 153 151 143 137 134 136 139 136 132 137 147 151 149 144 140 141 142 141 140 137 134 134 137 139 143 151 156 157 157 158 159 159 161 163 166 168 167 164 162 162 162 161 160 160 157 153 149 146 143 145 150 154 156 152 150 153 161 164 161 161 162 160 161 162 161 166 176 176 184 234 256 291 300 307 21 360
34 72 136 136 151 172 161 156 153 149 148 146 134 122 125 131 134 137 136 134 137 144 147 142 136 133 135 136 134 133 133 132 129 132 138 144 151 157 161 165 162 158 159 163 166 169 170 169 167 166 166 165 163 162 163 162 156 152 150 148 147 152 159 164 163 161 164 170 170 166 170 178 181 182 184 184 197 218 233 255 273 285 293 294 291 284 292
30 84 109 102 80 150 155 157 154 149 147 141 128 120 125 127 124 127 133 135 133 130 128 128 131 133 134 134 135 141 147 150 148 147 151 156 159 159 161 163 159 155 159 166 169 172 173 172 169 168 167 167 165 165 166 166 159 154 153 151 152 156 161 166 171 173 174 175 177 179 185 192 196 201 212 221 229 237 241 249 264 275 279 285 291 288 276
116 113 106 95 114 135 146 154 151 145 142 138 135 135 133 128 127 130 132 131 129 128 128 130 134 137 140 144 148 152 154 154 151 152 155 159 160 157 157 158 157 157 162 168 172 174 174 170 167 166 166 167 167 168 168 167 161 157 157 157 158 163 167 170 177 185 186 187 192 194 197 209 221 227 234 242 246 247 248 254 263 269 273 280 289 289 278
132 128 112 106 117 126 133 139 138 136 134 133 136 139 136 134 139 144 141 134 133 136 138 139 140 142 148 153 154 151 150 151 152 153 156 156 156 156 158 161 161 163 167 170 171 170 168 167 167 167 166 167 168 169 170 169 163 160 164 167 168 170 174 178 186 193 195 198 203 204 205 218 227 229 231 237 242 247 256 263 267 271 276 279 279 278 275
119 120 113 112 119 123 124 127 131 132 131 129 130 134 136 138 142 145 143 141 143 145 145 142 138 138 143 147 145 142 145 150 153 154 154 155 156 158 163 168 169 171 173 170 166 165 166 168 169 169 168 168 169 170 173 174 168 163 169 176 179 180 184 189 195 199 200 201 204 206 212 219 224 226 228 232 237 245 255 265 273 280 283 280 276 272 269
126 122 116 117 123 126 126 128 133 136 136 133 131 134 138 139 138 136 135 137 141 144 142 136 129 130 137 142 142 140 145 152 154 153 154 156 159 161 165 170 174 175 171 163 162 164 167 168 168 169 169 168 168 171 178 182 181 176 178 183 187 191 195 196 198 202 205 206 208 214 220 225 229 233 237 239 243 249 254 259 267 274 276 274 274 275 269
140 132 127 129 132 131 132 134 133 133 137 140 139 141 144 144 139 134 134 138 141 143 142 139 138 141 147 150 148 144 147 153 156 154 153 155 159 161 163 167 170 168 161 159 160 164 166 167 167 167 169 169 168 171 181 189 193 194 193 193 195 198 201 203 203 206 208 208 212 220 227 230 232 235 240 245 249 251 253 256 259 264 267 268 269 270 268
144 139 140 141 136 135 140 140 133 128 132 138 143 146 148 147 144 142 143 149 152 152 149 149 151 153 155 154 150 148 149 154 157 158 156 156 158 161 163 163 162 159 158 161 162 161 163 168 170 167 167 170 170 171 180 191 198 202 204 204 204 206 209 211 214 217 219 219 221 224 228 231 232 233 236 242 247 251 256 260 263 265 268 269 269 268 267
147 147 149 146 138 139 148 147 137 129 129 135 144 150 150 149 149 148 148 150 154 155 156 157 155 151 147 145 145 147 151 155 158 160 161 162 165 167 164 160 157 159 162 164 164 161 164 171 176 172 169 172 173 175 183 192 199 205 211 211 211 215 218 219 221 226 229 231 234 235 235 237 239 239 240 244 248 252 256 260 263 266 268 268 268 268 266
149 151 152 144 135 141 152 150 141 134 132 135 144 152 154 153 152 151 149 150 153 155 155 154 151 147 144 142 145 149 154 156 156 156 160 166 171 172 165 158 159 166 168 167 165 166 171 177 181 179 176 176 179 185 193 198 201 207 213 213 212 218 224 226 230 235 235 235 238 240 241 243 245 246 248 250 252 255 258 260 263 267 269 269 268 266 264
150 150 149 141 137 144 155 153 146 140 136 138 144 151 154 155 154 151 150 153 157 157 154 153 155 154 152 151 154 157 158 157 155 156 159 165 170 172 167 162 166 173 175 173 171 173 178 182 186 188 189 189 190 194 199 201 203 208 212 213 216 225 230 235 241 244 244 244 244 244 245 248 249 250 253 254 255 258 261 263 265 269 272 272 271 268 265
151 148 145 143 146 155 163 161 154 146 140 139 141 145 151 154 155 154 154 154 155 156 156 158 161 162 161 161 162 161 161 162 164 164 167 170 170 166 163 164 170 176 178 178 178 181 184 186 190 193 194 195 197 198 200 204 210 215 217 220 227 233 239 244 247 247 247 249 250 250 251 253 252 253 255 257 257 259 262 264 268 272 274 273 271 269 266
154 145 141 145 153 162 163 156 148 140 136 135 134 138 147 151 152 156 159 161 160 161 162 164 167 169 168 165 157 148 148 157 166 171 176 179 177 166 160 166 175 179 180 180 185 190 190 190 194 198 198 198 200 203 206 212 219 222 225 230 235 238 243 247 249 248 247 248 249 252 256 258 258 259 260 261 262 264 265 265 267 270 273 273 272 271 269
150 140 139 146 153 150 136 130 129 132 138 141 140 142 150 154 153 156 163 169 171 170 169 170 170 171 170 169 165 158 153 152 156 164 175 182 181 175 172 175 180 183 183 184 189 195 194 193 198 202 202 202 206 210 214 221 226 229 231 234 236 239 244 246 246 245 245 246 248 253 258 261 262 263 264 264 265 266 265 264 265 268 270 272 271 270 268
147 143 144 148 148 141 136 140 147 151 154 157 154 150 152 156 156 156 159 162 164 164 166 168 167 168 172 177 178 176 172 168 164 164 171 177 178 178 178 180 182 185 187 188 192 197 198 198 200 202 204 208 213 217 222 227 231 232 233 233 234 237 240 242 242 243 244 244 246 251 255 257 259 260 261 262 264 265 265 265 266 267 269 271 271 271 271
147 145 145 147 146 144 149 161 172 169 160 155 150 146 146 149 152 154 156 153 150 152 158 162 165 172 179 182 183 184 184 183 179 171 170 175 178 177 177 181 185 189 191 192 196 200 203 203 203 204 208 212 216 220 225 229 230 229 228 229 232 235 238 241 244 246 248 250 253 255 257 259 261 262 263 264 265 267 268 268 267 268 268 270 272 273 273
152 150 152 155 156 159 166 177 178 171 162 156 148 143 145 149 152 157 162 159 151 149 153 154 156 168 177 180 181 184 187 188 185 178 176 182 187 185 182 185 190 192 193 194 197 201 204 204 203 202 205 212 217 222 226 227 226 225 226 229 233 238 241 244 248 252 254 256 256 256 258 260 261 262 264 266 267 267 268 268 268 267 267 269 272 273 274
167 168 169 168 167 169 176 181 176 166 160 154 148 148 154 157 152 151 160 164 160 156 156 154 153 162 172 177 180 182 183 182 181 182 184 188 191 187 183 187 195 197 194 192 194 196 198 199 199 202 208 215 219 223 226 226 226 227 228 231 236 242 246 248 249 250 251 252 252 252 254 258 261 262 263 264 265 265 264 264 265 265 266 268 270 272 272
176 175 171 169 169 170 173 175 169 160 156 154 152 153 157 155 144 143 159 169 168 164 162 161 160 164 170 174 178 183 183 180 179 182 186 188 189 186 183 186 193 194 191 191 197 200 197 195 200 210 217 219 219 222 226 227 227 230 233 236 241 247 251 252 253 251 248 247 249 252 254 256 258 261 263 263 264 264 264 263 264 265 266 267 269 271 274
Height
700 698 702 704 706 708 710 712 713 712 714 717 721 725 721 718 727 729 718 718 724 719 720 729 731 738 749 751 753 758 760 762 763 764 766 770 773 776 778 782 786 788 791 795 798 799 799 803 808 813 817 819 821 824 825 827 828 829 830 831 831 832 834 835 836 837 838 839 839 840 839 839 838 837 837 837 837 837 837 837 837 836 836 836 835 834 834
707 706 707 706 706 707 708 708 709 710 712 714 718 721 719 719 724 721 716 721 721 714 716 723 727 737 746 750 753 757 760 763 765 766 769 772 774 776 779 782 786 790 794 797 799 800 802 806 809 814 818 819 820 823 824 826 828 829 830 831 832 833 835 836 837 838 839 840 840 841 840 840 839 838 838 838 838 838 838 838 838 837 837 837 836 835 834
712 711 709 709 708 708 709 708 705 706 710 712 716 718 718 721 724 721 720 723 722 719 719 722 730 739 745 751 755 757 759 762 764 767 770 772 775 777 780 784 788 792 797 799 801 803 805 808 811 814 818 819 820 821 824 826 828 829 830 831 832 834 835 836 838 839 840 841 841 842 841 841 840 839 839 839 839 839 839 838 838 838 838 838 837 836 836
714 712 712 711 709 710 712 710 706 706 709 712 714 713 714 719 722 724 728 727 721 721 723 727 736 742 746 751 754 756 758 760 763 767 770 772 775 778 782 786 790 794 798 800 804 806 807 808 811 815 817 818 819 821 823 826 827 829 830 831 833 834 836 837 838 839 841 841 842 842 842 841 841 840 840 840 840 840 839 839 839 839 840 839 838 838 837
715 714 713 711 713 720 719 710 703 703 705 708 710 710 711 714 716 722 727 720 712 716 725 733 740 744 746 749 750 752 756 759 763 766 768 772 775 780 785 789 791 795 798 801 804 807 808 809 812 814 815 817 819 821 824 826 828 829 830 831 834 835 837 838 839 840 841 842 843 843 842 842 841 841 841 841 841 841 840 841 841 841 841 840 840 839 838
716 716 713 714 722 727 722 714 708 707 706 706 709 711 712 712 712 716 718 713 710 717 724 731 737 740 743 746 748 750 753 758 762 764 767 772 777 781 786 788 791 794 797 801 805 807 809 810 812 815 816 818 820 822 825 827 828 830 831 833 835 836 838 839 840 841 842 842 843 843 842 842 842 842 842 842 842 841 841 842 842 842 842 842 841 840 839
711 714 717 726 730 724 718 717 716 715 714 712 712 714 713 712 713 716 716 715 716 719 723 727 734 739 742 746 749 750 752 755 759 764 768 773 778 781 783 786 789 792 796 801 804 807 810 812 814 816 818 820 821 823 826 828 829 831 832 834 836 837 839 840 841 842 842 843 843 842 842 843 842 843 843 843 843 843 843 843 843 843 843 842 842 842 841
710 717 722 726 724 717 716 720 721 721 722 720 721 723 718 714 714 715 714 715 718 722 725 729 734 739 743 748 751 752 753 755 759 764 769 774 777 779 780 784 788 791 796 801 804 808 811 813 815 817 819 821 822 824 827 829 830 832 833 835 837 838 839 840 841 842 843 843 843 843 843 843 843 844 844 844 844 844 844 844 844 845 844 843 843 843 843
714 717 717 714 714 717 718 718 718 719 718 716 719 722 716 710 711 712 713 716 720 724 728 732 737 741 747 753 755 754 755 757 759 762 766 771 775 777 781 787 790 793 798 802 805 808 811 814 817 818 820 822 823 825 827 829 831 833 834 836 838 839 840 841 842 843 843 844 844 844 844 844 844 845 845 845 845 845 845 845 845 845 845 845 845 845 844
713 711 713 714 719 721 716 712 710 712 713 710 711 715 712 707 708 710 711 715 719 723 729 737 741 745 751 757 757 754 753 755 758 762 767 771 775 779 785 789 792 796 800 803 806 810 812 815 818 819 821 822 824 826 828 829 831 833 835 837 838 840 841 842 843 844 844 845 845 845 845 845 845 846 846 847 847 846 846 846 846 846 846 846 846 846 846
712 712 715 716 718 716 713 711 710 711 713 710 712 719 714 703 704 709 709 712 717 721 729 737 741 746 752 755 754 751 751 754 759 765 770 775 779 783 787 789 793 797 800 803 807 812 814 817 819 820 821 823 825 827 829 830 832 834 835 837 839 841 843 844 844 845 846 846 846 846 846 846 847 847 848 848 848 847 847 847 847 847 847 847 848 848 848
710 711 712 710 708 707 708 710 711 710 711 712 719 725 713 697 699 705 705 709 715 719 727 734 735 736 738 739 742 747 751 756 761 766 770 776 780 784 787 790 793 797 800 804 809 813 815 817 819 821 822 824 826 828 830 832 833 835 837 838 840 842 844 844 846 846 847 847 847 847 848 848 848 849 849 848 848 848 848 848 848 848 849 849 849 849 849
709 711 711 707 705 705 706 709 710 710 713 717 720 718 708 698 699 700 701 706 712 718 725 728 727 726 724 725 735 746 753 759 764 767 771 775 779 782 786 789 793 798 802 806 810 813 815 818 820 822 823 825 828 830 832 834 836 837 838 838 841 844 845 845 847 847 848 848 848 849 849 849 850 850 849 849 849 849 849 849 850 850 850 850 850 850 850
705 708 709 708 707 707 707 708 710 712 716 717 712 708 708 705 701 699 701 707 712 718 722 723 723 725 725 728 736 747 754 759 763 768 772 776 779 784 788 791 794 798 803 807 810 813 816 819 821 822 824 826 829 831 833 835 837 838 839 840 843 845 845 846 847 848 849 850 850 851 851 850 851 850 850 851 850 850 851 851 851 851 851 851 851 851 851
705 709 713 714 712 708 705 707 712 715 716 713 708 707 709 707 702 702 706 709 713 718 722 724 726 729 731 735 740 746 753 759 763 769 773 776 780 785 789 793 797 800 803 808 811 814 817 819 821 823 825 827 830 832 834 836 837 838 840 843 845 846 846 847 848 849 851 852 852 852 852 852 852 851 852 852 852 852 853 852 852 852 852 853 853 852 852
704 710 711 711 709 705 702 705 710 712 712 712 710 709 708 706 705 705 707 710 714 717 721 726 729 732 735 740 743 747 753 759 765 770 774 777 782 787 790 794 798 801 804 808 812 815 818 820 822 824 826 828 831 833 835 836 838 840 843 845 846 846 847 848 849 851 852 853 854 853 853 853 853 853 853 854 854 854 854 853 853 853 853 854 854 854 854
700 704 706 708 710 709 707 709 712 713 714 715 714 711 708 707 706 705 706 711 715 717 722 727 730 733 737 741 746 750 754 761 767 771 776 779 783 787 791 795 799 802 805 808 812 816 819 821 823 826 827 829 831 834 836 838 840 842 844 845 846 847 848 849 851 852 853 854 855 854 854 855 854 855 855 855 855 855 855 855 855 855 855 855 855 855 854
700 706 710 713 713 712 712 713 715 716 716 716 715 713 710 708 707 706 707 711 715 719 723 728 732 735 737 742 748 752 756 763 769 772 777 782 785 788 792 795 799 802 805 809 813 816 819 822 824 827 829 830 832 835 837 839 841 843 845 846 847 849 850 851 852 854 855 855 856 856 856 856 856 857 857 857 857 857 856 856 857 857 857 857 856 856 855
702 706 711 712 713 715 714 714 715 717 718 717 716 714 711 709 708 709 711 714 719 722 724 728 733 736 738 742 749 754 758 764 769 773 778 783 786 789 792 795 799 802 805 809 813 816 820 823 825 828 830 832 834 836 839 841 843 844 846 847 849 850 851 852 854 855 856 856 857 857 858 858 858 859 859 859 858 858 858 858 859 859 859 858 858 857 857
701 706 712 716 717 718 717 714 714 716 717 718 717 715 712 710 710 713 715 717 720 723 726 729 733 737 739 743 748 754 759 764 769 774 779 782 786 789 793 796 799 802 806 809 813 816 820 824 826 829 831 834 836 838 840 842 844 845 847 848 850 851 852 853 855 856 857 857 858 858 859 860 860 860 861 861 861 861 861 861 860 860 860 860 860 859 858
701 704 711 715 715 715 716 715 716 717 718 718 718 717 714 713 714 716 718 719 721 724 727 730 733 737 741 744 748 754 760 764 769 774 778 781 785 789 793 797 800 803 807 810 814 817 821 824 828 830 833 835 837 839 841 843 845 846 848 850 851 852 853 854 856 857 858 858 859 860 861 862 862 862 863 863 863 864 864 863 863 862 862 862 862 862 861
702 701 704 707 707 707 711 714 716 718 719 719 718 718 716 716 717 718 720 722 724 726 729 731 733 737 742 745 749 754 759 764 769 773 777 781 786 789 793 797 801 804 808 811 815 819 822 825 829 832 834 836 839 840 842 844 845 847 849 850 851 853 854 855 856 857 858 859 860 861 863 864 864 865 865 865 865 866 866 866 865 865 864 864 864 864 864
706 705 705 705 705 707 711 715 717 719 719 718 718 718 717 717 719 720 722 725 728 730 732 733 734 737 742 747 750 754 759 764 768 773 776 781 785 790 794 797 801 806 810 813 816 820 823 827 830 832 835 837 839 841 843 845 846 848 849 850 852 853 854 856 857 858 859 860 861 862 863 865 866 867 867 868 868 868 868 868 868 867 866 866 866 865 865
710 710 709 708 709 711 715 716 718 719 719 717 717 718 717 718 719 721 724 727 729 732 735 735 736 739 743 749 752 755 760 764 768 772 777 781 785 790 794 797 802 806 810 814 817 821 824 828 830 833 836 839 840 842 844 845 847 849 850 851 852 853 855 857 858 859 860 861 862 863 864 865 866 867 868 869 870 870 870 870 869 869 869 868 868 867 866
713 712 712 713 713 715 715 716 718 720 718 717 718 719 719 720 721 723 725 728 731 734 736 738 740 742 744 750 755 758 762 766 770 773 778 783 787 791 795 799 803 807 811 815 818 822 825 828 831 834 837 839 841 843 844 846 847 849 850 851 852 854 856 857 858 860 861 862 863 864 865 865 866 866 867 868 870 871 872 872 871 871 871 870 869 869 868
715 715 715 715 716 717 717 716 718 721 721 720 721 722 721 723 725 726 728 730 733 736 738 741 744 747 749 753 758 761 764 768 773 776 779 784 789 793 797 800 804 808 812 816 819 823 826 829 832 835 837 840 842 843 844 846 848 849 851 852 853 855 856 858 859 860 861 862 863 864 865 866 866 867 867 868 869 870 871 871 872 872 872 872 871 870 869
716 715 715 714 716 719 719 717 719 722 723 723 723 724 725 727 728 729 731 734 737 739 741 743 746 751 754 757 761 766 769 772 775 778 781 785 790 795 799 803 806 809 813 817 820 824 827 830 833 835 838 840 842 844 845 847 848 850 851 853 854 856 857 858 859 860 862 863 864 865 866 867 867 868 869 869 869 869 869 870 871 871 872 873 872 871 870
717 717 716 714 715 719 722 721 721 722 724 724 725 726 727 729 730 732 734 738 740 742 745 747 749 753 759 762 765 769 775 779 782 783 784 787 792 796 800 804 808 811 814 818 822 825 828 831 833 836 838 841 843 844 846 847 849 850 852 853 855 857 858 859 860 861 863 864 865 866 867 867 868 869 869 869 870 870 870 870 871 871 871 872 872 872 871
720 719 718 717 718 721 723 723 722 724 726 727 727 728 729 731 733 735 738 741 743 746 749 753 754 757 762 767 768 770 776 782 786 787 788 791 794 798 802 807 810 813 817 820 823 826 828 831 833 836 838 841 843 844 846 848 849 851 852 853 855 857 858 859 861 862 863 864 866 867 868 868 869 869 870 870 870 870 870 871 871 871 871 871 871 871 870
721 721 721 721 722 723 724 724 726 727 729 729 730 731 732 733 736 739 742 745 747 749 753 756 758 761 765 769 771 773 777 782 786 790 792 794 798 801 805 808 812 815 818 821 823 826 828 831 833 836 839 841 843 845 846 848 850 851 852 854 855 857 858 860 861 862 864 865 867 868 868 869 869 869 870 870 870 871 871 872 871 871 870 870 870 870 869
724 723 723 724 724 724 724 726 728 730 731 731 733 734 735 737 739 743 745 747 750 753 755 757 760 764 767 769 772 777 781 784 788 792 795 797 800 804 807 809 812 814 817 820 823 826 828 830 833 836 839 841 843 845 847 848 850 851 852 854 856 857 859 860 862 863 864 866 867 868 868 869 869 870 870 871 871 871 871 871 871 871 870 870 869 869 869
725 726 727 726 725 726 727 729 731 732 733 734 736 737 738 740 741 744 747 749 752 754 756 758 761 765 769 772 775 779 783 787 790 793 796 799 802 805 808 811 813 815 817 820 823 826 828 830 832 836 839 841 843 845 847 848 849 851 853 854 856 859 860 861 862 864 865 867 867 868 868 869 869 870 870 870 870 871 871 871 871 870 870 869 869 869 869
724 726 727 727 726 728 731 732 733 734 736 738 739 740 741 742 743 746 748 751 753 755 758 761 763 766 771 774 777 780 783 788 792 794 797 800 804 807 810 812 814 816 818 821 824 826 829 830 833 836 839 841 843 845 847 848 850 851 853 855 857 859 861 862 863 864 865 866 867 867 868 869 869 869 870 870 870 870 870 870 870 870 869 869 868 868 869
724 724 725 726 727 728 731 734 735 736 739 741 742 743 744 745 746 748 749 752 755 757 759 762 764 767 771 775 778 781 784 788 792 795 798 801 805 808 811 813 815 816 819 822 825 827 829 830 833 836 839 841 843 845 847 848 850 851 853 855 857 859 861 862 863 864 865 866 866 867 868 869 868 869 869 869 870 870 870 870 870 869 869 868 867 867 868
727 726 727 728 729 728 731 734 735 737 740 743 744 745 746 747 749 750 752 754 756 758 760 763 766 769 773 776 779 782 785 787 791 794 798 802 806 809 811 813 814 816 819 822 825 827 828 831 833 836 838 841 843 845 847 849 850 851 853 855 857 859 860 862 863 864 864 865 866 866 867 868 868 868 869 869 869 869 869 869 869 868 868 867 867 866 866
728 728 730 731 731 732 734 736 736 738 741 743 745 747 748 750 751 754 755 757 759 761 763 766 769 773 776 778 781 783 786 789 792 795 799 803 806 809 811 813 814 816 819 822 824 826 828 831 833 836 838 841 843 845 847 849 850 851 854 855 856 858 860 861 862 863 863 864 865 865 866 867 867 868 868 868 868 867 867 867 867 867 866 866 866 865 865
729 729 731 732 733 736 737 738 739 741 742 743 745 748 750 752 754 756 758 759 761 763 765 768 771 774 778 781 784 786 788 791 794 797 800 804 807 809 811 813 814 817 819 821 823 826 828 830 833 836 838 840 843 845 847 848 850 852 854 855 856 857 859 860 861 862 862 863 864 864 865 866 866 866 867 867 866 866 866 865 865 865 865 864 864 865 864
731 731 733 734 736 738 740 741 742 743 744 745 747 749 751 753 756 758 759 761 764 766 768 771 773 776 780 784 786 788 790 793 795 799 802 805 807 809 811 812 814 816 818 820 823 826 828 830 833 836 838 840 842 845 847 848 850 851 853 854 855 856 857 858 859 860 861 861 862 863 864 864 864 864 864 864 864 864 864 864 864 864 864 863 863 863 862
733 734 735 736 738 739 741 743 744 745 746 747 749 751 753 755 757 759 761 763 765 767 770 772 775 778 781 785 788 790 792 794 797 800 803 805 807 809 811 812 814 816 818 821 824 826 828 830 833 836 838 840 842 844 847 849 850 851 852 854 855 855 856 857 858 858 859 860 861 861 862 862 862 862 862 862 862 862 862 863 863 863 862 862 861 861 861
734 735 736 738 739 740 742 744 745 747 748 749 750 752 754 756 758 760 762 764 767 769 771 773 776 779 782 785 787 790 793 796 798 801 803 805 807 809 811 813 815 817 819 821 824 826 828 831 834 835 837 839 842 844 847 849 850 851 852 853 854 854 855 856 856 857 857 858 859 860 860 860 860 861 861 861 861 861 861 861 861 861 860 860 859 859 859
735 737 738 739 740 741 742 744 746 748 750 751 753 754 755 757 759 761 763 765 768 770 772 774 776 779 781 784 786 789 793 796 799 801 803 804 806 808 810 812 815 817 819 822 824 826 829 832 833 835 837 839 841 843 846 848 850 851 851 852 853 853 853 854 855 855 856 856 857 857 858 858 858 859 859 859 859 859 859 859 859 858 858 858 857 857 857
737 738 739 740 742 743 743 744 747 749 751 753 754 756 757 758 760 762 764 766 768 771 773 775 777 779 781 784 787 790 793 796 799 801 803 804 806 807 809 811 815 817 820 822 824 827 830 832 833 834 836 838 840 843 845 847 849 850 850 850 851 852 852 853 853 853 854 855 855 855 855 856 856 856 856 857 857 857 857 857 857 856 856 856 856 856 855
738 739 740 741 743 745 745 746 748 750 752 754 756 757 759 760 762 763 765 767 769 771 774 776 778 780 782 785 787 790 793 796 798 801 803 806 807 808 809 812 815 818 820 822 825 827 830 832 833 834 836 838 840 842 844 846 847 848 848 849 850 850 851 851 852 852 852 852 853 853 853 854 854 854 854 854 854 854 854 854 854 854 854 854 853 853 853
739 740 742 743 745 747 747 747 749 751 753 756 757 759 760 761 763 764 765 767 769 772 774 777 780 782 784 786 788 790 792 795 798 800 803 806 808 809 810 813 815 818 820 823 825 827 829 831 832 834 836 838 839 841 843 845 846 846 847 847 848 849 849 850 850 851 850 851 851 851 851 852 852 852 852 852 852 852 852 852 852 852 852 852 851 851 851
741 742 743 745 747 748 748 748 749 751 754 756 758 760 761 763 764 765 767 768 770 772 774 777 780 782 784 786 788 790 792 794 797 799 801 804 806 808 810 813 815 817 820 823 825 826 828 830 831 833 835 837 839 841 842 844 844 845 845 846 847 847 848 848 849 849 849 849 849 850 849 850 850 850 850 850 850 850 850 850 850 850 850 850 849 849 848
742 743 745 747 748 749 749 750 750 752 755 757 759 761 763 764 765 767 768 770 771 773 775 777 779 781 783 786 788 790 793 796 799 800 802 804 806 808 810 813 815 817 820 822 824 825 826 828 830 833 834 836 838 840 841 842 843 843 844 845 845 846 847 847 847 847 848 848 848 848 848 848 848 847 847 848 848 848 848 848 848 848 848 847 847 847 846
742 744 746 748 749 751 752 752 753 755 756 758 760 762 764 765 767 768 770 771 773 774 776 777 779 781 784 786 788 790 793 796 799 802 804 805 807 809 811 813 815 817 820 822 823 824 825 827 830 832 833 835 837 839 840 841 841 842 842 843 844 844 844 845 845 845 845 846 846 846 846 846 846 846 846 846 846 846 846 846 846 846 845 845 845 844 844
743 744 747 749 750 752 753 754 755 756 757 758 760 762 764 766 768 769 771 773 774 775 777 778 780 782 784 786 788 790 792 795 798 801 803 805 807 809 811 813 815 817 819 821 823 824 825 827 829 831 833 834 836 837 838 839 839 840 840 841 841 842 842 843 843 843 843 843 844 844 844 844 844 844 843 843 843 843 843 843 843 843 843 842 842 841 841
744 745 747 749 751 752 754 755 755 756 757 759 761 763 764 766 768 770 772 773 774 776 778 780 781 782 784 786 788 791 793 795 798 800 802 805 807 808 810 813 814 816 819 821 822 824 825 827 828 830 832 833 834 836 836 837 837 838 838 839 839 840 840 840 840 841 841 841 841 841 841 841 841 841 841 841 840 840 840 840 840 840 840 839 839 838 838
744 746 747 749 751 753 754 755 754 755 757 759 761 763 765 766 768 770 772 773 775 777 779 780 782 784 785 787 790 792 794 796 799 801 803 805 806 808 810 812 814 815 818 820 821 823 824 826 827 829 830 832 833 834 834 834 835 836 836 837 837 838 838 838 839 839 839 839 839 839 839 839 839 838 838 838 838 838 837 837 837 837 836 836 835 835 834
744 745 746 748 750 752 754 754 754 755 757 759 761 763 765 766 768 770 772 773 775 777 779 780 782 784 786 788 790 793 795 797 799 800 802 804 806 807 809 811 813 815 817 818 820 821 823 824 826 827 829 830 831 832 832 832 833 834 834 834 835 835 835 836 836 836 836 836 836 836 836 836 836 836 835 835 835 834 834 834 833 833 832 832 831 831 830
744 745 746 748 750 752 753 754 755 756 758 760 761 763 765 767 769 771 773 774 775 777 778 780 782 784 786 788 790 792 794 796 798 800 801 803 805 806 808 810 811 813 815 817 818 819 821 823 824 825 827 828 829 829 830 830 831 831 832 832 832 832 832 833 833 833 833 833 833 833 833 833 833 832 832 831 831 831 830 830 829 829 828 828 828 827 826